Change the Weather History Date:

Friday, November 23, 2012

  Actual Average (KLVN) Record (KLVN)
Temperature  
Mean Temperature 22 °F -  
Max Temperature 28 °F 34 °F 55 °F (2001)
Min Temperature 17 °F 21 °F -5 °F (1950)
Degree Days  
Heating Degree Days 42    
Moisture  
Dew Point 15 °F    
Average Humidity 69    
Maximum Humidity 81    
Minimum Humidity 55    
Precipitation  
Precipitation 0.00 in - - ()
Sea Level Pressure  
Sea Level Pressure 30.22 in    
Wind  
Wind Speed 20 mph (NW)    
Max Wind Speed 26 mph    
Max Gust Speed 37 mph    
Visibility 9 miles    
Events Snow    
Averages and records for this station are not official NWS values.
T = Trace of Precipitation, MM = Missing Value Source: NWS Daily Summary

Daily Weather History Graph

Daily Weather History Graph

Search for Another Location

Airport or City:

Trip Planner

Search our weather history database for the weather conditions in past years. The results will help you decide how hot, cold, wet, or windy it might be!

Date:

Astronomy

Nov. 23, 2012 Rise Set
Actual Time 7:19 AM CST 4:37 PM CST
Civil Twilight 6:47 AM CST 5:09 PM CST
Nautical Twilight 6:11 AM CST 5:45 PM CST
Astronomical Twilight 5:36 AM CST 6:20 PM CST
Moon 2:00 PM CST (11/23) 2:29 AM CST (11/23)
Length of Visible Light 10h 22m
Length of Day
9h 18m
Waxing Gibbous, 80% of the Moon is Illuminated
Nov 23
Waxing Gibbous
Nov 28
Full
Dec 6
Last Quarter
Dec 13
New
Dec 19
First Quarter

Hourly Weather History & Observations

Time (CST) Temp. Windchill Dew Point Humidity Pressure Visibility Wind Dir Wind Speed Gust Speed Precip Events Conditions
12:12 AM 26.1 °F 10.7 °F 15.6 °F 65% 29.99 in 10.0 mi WNW 25.3 mph 36.8 mph N/A   Mostly Cloudy
12:32 AM 25.7 °F 10.2 °F 16.7 °F 69% 29.99 in 10.0 mi West 25.3 mph 34.5 mph N/A Snow Light Snow
12:52 AM 25.2 °F 10.8 °F 17.8 °F 74% 30.00 in 7.0 mi West 20.7 mph 32.2 mph N/A Snow Light Snow
1:12 AM 24.8 °F 9.0 °F 17.6 °F 74% 30.00 in 7.0 mi WNW 25.3 mph 35.7 mph N/A   Overcast
1:32 AM 24.6 °F 10.9 °F 18.3 °F 77% 30.00 in 4.0 mi WNW 18.4 mph 33.4 mph N/A Snow Light Snow
1:52 AM 24.4 °F 8.2 °F 18.1 °F 77% 30.01 in 4.0 mi WNW 26.5 mph 33.4 mph N/A Snow Light Snow
2:12 AM 24.3 °F 8.6 °F 17.6 °F 76% 30.02 in 5.0 mi WNW 24.2 mph 33.4 mph N/A Snow Light Snow
2:32 AM 23.9 °F 8.4 °F 18.0 °F 78% 30.03 in 7.0 mi WNW 23.0 mph 31.1 mph N/A Snow Light Snow
2:52 AM 23.9 °F 8.8 °F 18.1 °F 79% 30.04 in 5.0 mi WNW 21.9 mph 29.9 mph N/A Snow Light Snow
3:12 AM 23.5 °F 8.0 °F 17.6 °F 78% 30.04 in 7.0 mi WNW 23.0 mph 26.5 mph N/A Snow Light Snow
3:32 AM 23.0 °F 6.6 °F 17.4 °F 79% 30.05 in 5.0 mi WNW 25.3 mph 29.9 mph N/A Snow Light Snow
3:52 AM 23.0 °F 6.9 °F 17.2 °F 79% 30.05 in 7.0 mi WNW 24.2 mph 29.9 mph N/A Snow Light Snow
4:13 AM 22.6 °F 7.1 °F 16.5 °F 77% 30.07 in 7.0 mi WNW 21.9 mph - N/A Snow Light Snow
4:32 AM 21.9 °F 5.8 °F 14.9 °F 74% 30.08 in 4.0 mi NW 23.0 mph 36.8 mph N/A Snow Light Snow
4:52 AM 21.7 °F 4.6 °F 14.5 °F 74% 30.09 in 5.0 mi NW 26.5 mph 34.5 mph N/A Snow Light Snow
5:12 AM 20.7 °F 3.5 °F 14.0 °F 75% 30.10 in 5.0 mi WNW 25.3 mph 33.4 mph N/A Snow Light Snow
5:32 AM 20.7 °F 4.1 °F 12.9 °F 72% 30.12 in 10.0 mi NW 23.0 mph 29.9 mph N/A   Mostly Cloudy
5:53 AM 20.3 °F 4.4 °F 12.9 °F 73% 30.13 in 10.0 mi NW 20.7 mph 32.2 mph N/A Snow Light Snow
6:12 AM 20.3 °F 4.8 °F 13.3 °F 74% 30.14 in 7.0 mi NW 19.6 mph 27.6 mph N/A Snow Light Snow
6:32 AM 20.3 °F 5.2 °F 14.0 °F 77% 30.15 in 5.0 mi NW 18.4 mph 24.2 mph N/A Snow Light Snow
6:53 AM 19.6 °F 3.1 °F 12.7 °F 75% 30.16 in 4.0 mi NW 21.9 mph 25.3 mph N/A Snow Light Snow
7:12 AM 19.4 °F 3.6 °F 11.7 °F 72% 30.17 in 10.0 mi NW 19.6 mph 25.3 mph N/A Snow Light Snow
7:32 AM 19.6 °F 3.5 °F 11.8 °F 72% 30.17 in 10.0 mi NW 20.7 mph 26.5 mph N/A Snow Light Snow
7:52 AM 19.9 °F 5.7 °F 12.2 °F 72% 30.19 in 10.0 mi NW 16.1 mph 25.3 mph N/A Snow Light Snow
8:12 AM 20.3 °F 5.7 °F 12.7 °F 73% 30.19 in 10.0 mi NW 17.3 mph 21.9 mph N/A Snow Light Snow
8:32 AM 20.7 °F 6.6 °F 12.9 °F 72% 30.20 in 10.0 mi WNW 16.1 mph 21.9 mph N/A Snow Light Snow
8:52 AM 20.8 °F 5.9 °F 13.3 °F 73% 30.21 in 10.0 mi NW 18.4 mph 24.2 mph N/A Snow Light Snow
9:12 AM 22.1 °F 8.0 °F 14.2 °F 72% 30.22 in 10.0 mi NW 17.3 mph 25.3 mph N/A Snow Light Snow
9:32 AM 22.6 °F 6.4 °F 14.5 °F 71% 30.23 in 10.0 mi NW 24.2 mph 31.1 mph N/A Snow Light Snow
9:52 AM 23.0 °F 8.0 °F 14.7 °F 71% 30.24 in 10.0 mi NW 20.7 mph 28.8 mph N/A Snow Light Snow
10:12 AM 23.7 °F 8.2 °F 14.9 °F 69% 30.25 in 10.0 mi NW 23.0 mph 29.9 mph N/A Snow Light Snow
10:32 AM 23.9 °F 9.9 °F 14.7 °F 68% 30.26 in 10.0 mi NW 18.4 mph 29.9 mph N/A   Mostly Cloudy
10:52 AM 24.3 °F 10.4 °F 15.1 °F 68% 30.27 in 10.0 mi NW 18.4 mph 24.2 mph N/A   Mostly Cloudy
11:12 AM 24.4 °F 11.5 °F 15.1 °F 68% 30.27 in 10.0 mi NW 16.1 mph 24.2 mph N/A   Mostly Cloudy
11:32 AM 24.6 °F 10.1 °F 15.3 °F 68% 30.26 in 10.0 mi NW 20.7 mph 24.2 mph N/A   Mostly Cloudy
11:53 AM 25.2 °F 9.8 °F 15.1 °F 66% 30.27 in 10.0 mi NW 24.2 mph 27.6 mph N/A   Overcast
12:12 PM 25.5 °F 10.9 °F 15.1 °F 65% 30.27 in 10.0 mi NNW 21.9 mph 29.9 mph N/A   Mostly Cloudy
12:32 PM 25.5 °F 11.6 °F 14.9 °F 64% 30.28 in 10.0 mi NNW 19.6 mph 25.3 mph N/A   Mostly Cloudy
12:52 PM 25.7 °F 10.8 °F 14.7 °F 63% 30.28 in 10.0 mi NW 23.0 mph 29.9 mph N/A   Mostly Cloudy
1:13 PM 25.9 °F 11.4 °F 14.2 °F 61% 30.28 in 10.0 mi NW 21.9 mph 28.8 mph N/A   Mostly Cloudy
1:32 PM 26.1 °F 12.7 °F 14.4 °F 61% 30.27 in 10.0 mi NW 18.4 mph 25.3 mph N/A   Overcast
1:52 PM 27.5 °F 14.6 °F 14.5 °F 58% 30.29 in 10.0 mi NW 18.4 mph - N/A   Mostly Cloudy
2:12 PM 28.2 °F 15.9 °F 14.7 °F 57% 30.29 in 10.0 mi NNW 17.3 mph - N/A   Scattered Clouds
2:32 PM 28.4 °F 16.2 °F 14.0 °F 55% 30.28 in 10.0 mi NW 17.3 mph 23.0 mph N/A   Scattered Clouds
2:52 PM 27.9 °F 14.7 °F 13.8 °F 56% 30.29 in 10.0 mi NW 19.6 mph 24.2 mph N/A   Scattered Clouds
3:13 PM 27.0 °F 13.5 °F 13.8 °F 58% 30.30 in 10.0 mi NW 19.6 mph - N/A   Scattered Clouds
3:32 PM 27.5 °F 15.0 °F 14.0 °F 57% 30.30 in 10.0 mi NW 17.3 mph - N/A   Overcast
3:52 PM 27.3 °F 16.6 °F 14.0 °F 57% 30.31 in 10.0 mi NW 12.7 mph - N/A   Overcast
4:13 PM 27.3 °F 14.8 °F 13.8 °F 57% 30.31 in 10.0 mi NW 17.3 mph 20.7 mph N/A   Overcast
4:32 PM 26.6 °F 15.7 °F 14.0 °F 59% 30.31 in 10.0 mi NW 12.7 mph 21.9 mph N/A   Overcast
4:52 PM 26.6 °F 16.2 °F 14.0 °F 59% 30.31 in 10.0 mi NW 11.5 mph - N/A   Overcast
5:13 PM 26.6 °F 13.8 °F 13.8 °F 59% 30.33 in 10.0 mi NW 17.3 mph 21.9 mph N/A   Overcast
5:32 PM 26.2 °F 13.8 °F 14.0 °F 60% 30.33 in 10.0 mi NW 16.1 mph - N/A   Overcast
5:52 PM 26.4 °F 13.6 °F 14.0 °F 59% 30.33 in 10.0 mi NNW 17.3 mph - N/A   Overcast
6:13 PM 25.7 °F 16.4 °F 14.4 °F 62% 30.33 in 10.0 mi NNW 9.2 mph - N/A   Overcast
6:32 PM 25.7 °F 12.7 °F 14.0 °F 61% 30.33 in 10.0 mi NW 17.3 mph 21.9 mph N/A   Overcast
6:52 PM 25.3 °F 13.6 °F 13.8 °F 62% 30.34 in 10.0 mi NW 13.8 mph - N/A   Overcast
7:13 PM 25.3 °F 14.1 °F 13.8 °F 62% 30.34 in 10.0 mi NNW 12.7 mph - N/A   Overcast
7:32 PM 25.0 °F 16.3 °F 13.8 °F 63% 30.33 in 10.0 mi NNW 8.1 mph - N/A   Overcast
7:52 PM 24.6 °F 13.8 °F 15.6 °F 69% 30.34 in 10.0 mi WNW 11.5 mph - N/A   Overcast
8:13 PM 23.9 °F 13.5 °F 15.6 °F 71% 30.33 in 10.0 mi WNW 10.4 mph - N/A   Overcast
8:32 PM 23.5 °F 11.8 °F 15.4 °F 71% 30.34 in 10.0 mi WNW 12.7 mph - N/A   Overcast
8:52 PM 23.0 °F 11.1 °F 15.3 °F 72% 30.34 in 10.0 mi WNW 12.7 mph - N/A   Mostly Cloudy
9:13 PM 22.6 °F 10.7 °F 14.9 °F 72% 30.33 in 10.0 mi WNW 12.7 mph 17.3 mph N/A   Mostly Cloudy
9:32 PM 22.3 °F 9.7 °F 14.9 °F 73% 30.33 in 10.0 mi WNW 13.8 mph - N/A   Mostly Cloudy
9:52 PM 21.9 °F 9.8 °F 14.5 °F 73% 30.33 in 10.0 mi WNW 12.7 mph 17.3 mph N/A   Mostly Cloudy
10:13 PM 21.2 °F 9.5 °F 14.0 °F 74% 30.32 in 10.0 mi NW 11.5 mph - N/A   Mostly Cloudy
10:32 PM 20.3 °F 11.5 °F 13.3 °F 74% 30.32 in 10.0 mi NW 6.9 mph - N/A   Mostly Cloudy
10:52 PM 18.7 °F 10.6 °F 12.6 °F 77% 30.32 in 10.0 mi NW 5.8 mph - N/A   Scattered Clouds
11:13 PM 17.1 °F 7.6 °F 12.0 °F 81% 30.32 in 10.0 mi NW 6.9 mph - N/A   Clear
11:32 PM 17.1 °F 8.7 °F 12.0 °F 81% 30.32 in 10.0 mi WNW 5.8 mph - N/A   Clear